This is the latest recevied weather packets stored in our database for station/object K1RFS. If no packets are shown the sender has not sent any weather packets the latest 10 day(s).
| Time | Temp. | Humidity | Pressure | Rain* | Wind** | Luminosity | Snow |
|---|---|---|---|---|---|---|---|
| 1787867889 | 34.44° C | 21% | 1004.5 hPa | 0 mm | - | 206 W/m² | - |
| 1787867585 | 35° C | 21% | 1004.6 hPa | 0 mm | - | 146 W/m² | - |
| 1787867284 | 34.44° C | 21% | 1004.5 hPa | 0 mm | - | 174 W/m² | - |
| 1787866981 | 35° C | 21% | 1004.4 hPa | 0 mm | - | 185 W/m² | - |
| 1787866675 | 34.44° C | 22% | 1004.5 hPa | 0 mm | - | 154 W/m² | - |
| 1787866374 | 34.44° C | 23% | 1004.6 hPa | 0 mm | - | 562 W/m² | - |
| 1787866069 | 34.44° C | 22% | 1004.8 hPa | 0 mm | - | 575 W/m² | - |
| 1787865764 | 33.89° C | 24% | 1004.9 hPa | 0 mm | - | 583 W/m² | - |
| 1787865459 | 32.78° C | 24% | 1004.9 hPa | 0 mm | - | 661 W/m² | - |
| 1787865153 | 31.67° C | 25% | 1004.9 hPa | 0 mm | - | 597 W/m² | - |
| 1787864851 | 31.11° C | 26% | 1004.9 hPa | 0 mm | - | 122 W/m² | - |
| 1787864550 | 31.67° C | 26% | 1005 hPa | 0 mm | - | 107 W/m² | - |
| 1787864245 | 32.22° C | 26% | 1004.9 hPa | 0 mm | - | 127 W/m² | - |
| 1787863939 | 32.78° C | 25% | 1005.2 hPa | 0 mm | - | 136 W/m² | - |
| 1787863638 | 32.78° C | 26% | 1004.9 hPa | 0 mm | - | 263 W/m² | - |
| 1787863337 | 32.78° C | 26% | 1005 hPa | 0 mm | - | 252 W/m² | - |
| 1787863033 | 33.89° C | 25% | 1005.4 hPa | 0 mm | - | 703 W/m² | - |
| 1787862728 | 37.22° C | 18% | 1005.4 hPa | 0 mm | - | 718 W/m² | - |
| 1787862423 | 35.56° C | 20% | 1005.3 hPa | 0 mm | - | 611 W/m² | - |
| 1787862118 | 36.67° C | 19% | 1005 hPa | 0 mm | - | 319 W/m² | - |
| 1787861813 | 37.22° C | 18% | 1005.3 hPa | 0 mm | - | 670 W/m² | - |
| 1787861511 | 35.56° C | 19% | 1005.3 hPa | 0 mm | - | 665 W/m² | - |
| 1787861206 | 34.44° C | 21% | 1005.2 hPa | 0 mm | - | 550 W/m² | - |
| 1787860905 | 36.11° C | 19% | 1005.3 hPa | 0 mm | - | 181 W/m² | - |
| 1787860600 | 35.56° C | 20% | 1005.3 hPa | 0 mm | - | 567 W/m² | - |
* Rain latest hour (hover to see other rain measurements)
** Current wind speed in m/s (hover to see current wind gust speed)